[[{"header":{"parameterUnit":"m.s-1","parameterCategory":1,"la1":30.2991,"la2":30.254,"lo1":-89.0895,"lo2":-89.0444,"dy":0.0017,"dx":0.0017,"nx":28,"ny":28,"refTime":"2023-09-25T09:00:00:Z","depth":0,"parameterNumber":2,"parameterNumberName":"U-component_of_WINDS"},"data":[0,0,0,0,0,0,0,0,0,0,0,0,0,0,0,0,0,0,0,0,0,0,0,0,0,0,0,0,0,0,0,0,0,0,0,0,0,0,0,0,0,0,0,0,0,0,0,0,0,0,0,0,0,0,0,0,0,0,-4.3661,-4.3662,0,-4.373,-4.3731,-4.3732,-4.3732,-4.3731,-4.373,-4.3729,-4.3794,-4.3796,-4.3798,0,0,0,0,0,0,0,0,0,0,0,0,0,-4.3522,-4.3525,-4.3661,-4.3662,-4.3663,-4.373,-4.3731,-4.3732,-4.3732,-4.3731,-4.373,-4.3729,-4.3793,-4.3796,-4.3799,0,0,0,0,0,0,0,0,0,0,0,0,0,-4.3586,-4.3526,-4.3661,-4.3671,-4.3673,-4.373,-4.3731,-4.3732,-4.3732,-4.3731,-4.3729,-4.3728,-4.3792,-4.3795,-4.3799,-4.3849,0,0,-4.3811,-4.3812,0,0,0,0,0,0,0,0,-4.3582,-4.3591,-4.3669,-4.3671,-4.3672,-4.3721,-4.3706,-4.3771,-4.3732,-4.3709,-4.3729,-4.3727,-4.377,-4.3776,-4.3791,-4.3852,-4.3855,-4.3811,-4.3813,-4.3815,-4.3816,0,0,0,0,0,0,0,-4.3578,-4.3588,-4.3688,-4.367,-4.3672,-4.367,-4.3677,-4.3718,-4.3746,-4.3711,-4.3711,-4.372,-4.3771,-4.3788,-4.3793,-4.3856,-4.3811,-4.3814,-4.3817,-4.3818,-4.3959,-4.396,0,0,0,0,0,0,-4.3572,-4.3584,-4.3686,-4.3691,-4.3623,-4.3673,-4.3682,-4.3707,-4.3746,-4.375,-4.3721,-4.372,-4.3782,-4.3788,-4.3795,-4.3854,-4.3815,-4.3819,-4.3821,-4.3957,-4.3959,-4.3961,0,0,0,0,0,0,-4.357,-4.3582,-4.3683,-4.3638,-4.365,-4.3677,-4.3705,-4.3709,-4.3726,-4.3753,-4.3757,-4.3733,-4.3781,-4.379,-4.3836,-4.3856,-4.382,-4.3824,-4.3956,-4.3958,-4.396,-4.3974,0,0,0,0,0,0,-4.3566,-4.3581,-4.3601,-4.3638,-4.3653,-4.3725,-4.3707,-4.3711,-4.3733,-4.3732,-4.3766,-4.377,-4.3781,-4.383,-4.3839,-4.3861,-4.3827,-4.3954,-4.3957,-4.3959,-4.3971,-4.3976,-4.398,0,0,0,0,0,-4.3561,-4.3602,-4.3603,-4.3615,-4.368,-4.3726,-4.3734,-4.3747,-4.3735,-4.3754,-4.3772,-4.3769,-4.3853,-4.3835,-4.3845,-4.3868,-4.3952,-4.3956,-4.3959,-4.3969,-4.3975,-4.398,0,0,0,0,0,0,-4.3565,-4.3607,-4.3608,-4.3663,-4.3691,-4.3726,-4.3751,-4.3753,-4.3784,-4.3781,-4.3794,-4.3802,-4.3847,-4.3863,-4.3841,-4.3917,-4.3901,-4.3906,-4.3905,-4.3911,-4.3915,-4.3909,-4.383,0,0,0,0,0,-4.3572,-4.3609,-4.3643,-4.3687,-4.3702,-4.3724,-4.3745,-4.3753,-4.3781,-4.3793,-4.3814,-4.384,-4.3872,-4.3893,-4.3924,-4.3975,-4.398,-4.3996,-4.4,-4.4003,-4.4007,-4.4032,-4.4038,-4.3971,-4.3971,-4.3971,0,0,-4.3588,-4.3615,-4.3637,-4.3689,-4.3712,-4.3746,-4.3734,-4.3772,-4.3797,-4.3798,-4.3842,-4.3859,-4.3889,-4.3936,-4.3959,-4.3951,-4.4027,-4.4007,-4.401,-4.4012,-4.4036,-4.4042,-4.4048,-4.3974,-4.3973,-4.3973,0,0,-4.3633,-4.3659,-4.3698,-4.3721,-4.3757,-4.3771,-4.3781,-4.3816,-4.3827,-4.3872,-4.3873,-4.3902,-4.3958,-4.3979,-4.3997,-4.405,-4.4047,-4.4059,-4.408,-4.4105,-4.411,-4.4115,-4.4131,-4.4137,-4.4064,-4.4064,-4.4064,0,-4.3646,-4.3701,-4.3717,-4.3755,-4.3776,-4.3781,-4.3819,-4.384,-4.3883,-4.3897,-4.3889,-4.3958,-4.3979,-4.403,-4.4043,-4.4058,-4.4067,-4.4054,-4.4109,-4.4114,-4.4118,-4.4133,-4.414,-4.4065,-4.4065,-4.4064,-4.4064,0,-4.3714,-4.3752,-4.3779,-4.3822,-4.3847,-4.3884,-4.3904,-4.3927,-4.3932,-4.3947,-4.3992,-4.4018,-4.4053,-4.4066,-4.4072,-4.4118,-4.4112,-4.4106,-4.4089,-4.4125,-4.414,-4.4146,-4.4066,-4.4066,-4.4065,-4.4065,0,0,-4.3762,-4.3814,-4.3823,-4.3842,-4.3881,-4.3909,-4.3946,-4.3983,-4.4001,-4.4031,-4.406,-4.4107,-4.4102,-4.4122,-4.413,-4.4152,-4.4188,-4.4143,-4.4144,-4.4148,-4.4238,-4.424,-4.4247,-4.4188,-4.419,-4.4191,-4.4235,0,-4.3809,-4.3876,-4.3892,-4.3949,-4.3982,-4.3987,-4.4019,-4.4045,-4.406,-4.4089,-4.4104,-4.4137,-4.4129,-4.4141,-4.4163,-4.4179,-4.4206,-4.4177,-4.4212,-4.4214,-4.4202,-4.4255,-4.4258,-4.4298,-4.4241,-4.4242,-4.4242,0,-4.3872,-4.3904,-4.3965,-4.3999,-4.4013,-4.4042,-4.4075,-4.4104,-4.4133,-4.4142,-4.4165,-4.4171,-4.4207,-4.419,-4.4239,-4.4218,-4.4234,-4.4244,-4.4246,-4.4247,-4.4228,-4.4255,-4.4311,-4.4316,-4.4252,-4.4251,-4.4251,0,-4.3897,-4.3956,-4.3999,-4.4015,-4.4057,-4.4076,-4.4094,-4.4122,-4.4142,-4.4172,-4.4185,-4.4217,-4.4234,-4.4259,-4.4272,-4.4259,-4.4318,-4.4303,-4.4324,-4.4324,-4.4334,-4.4333,-4.4391,-4.4349,-4.4349,-4.4349,-4.4349,0,-4.3945,-4.3981,-4.401,-4.4037,-4.4076,-4.4093,-4.4132,-4.4149,-4.4174,-4.4202,-4.4209,-4.4234,-4.4252,-4.428,-4.429,-4.4327,-4.4335,-4.4342,-4.4344,-4.434,-4.4338,-4.4348,-4.4344,-4.435,-4.435,-4.435,-4.435,0,-4.3978,-4.4,-4.4047,-4.4083,-4.4093,-4.412,-4.4149,-4.4174,-4.419,-4.4225,-4.4234,-4.4258,-4.429,-4.4307,-4.4348,-4.4355,-4.4395,-4.4397,-4.4386,-4.4386,-4.4405,-4.4402,-4.4469,-4.4477,-4.4432,-4.4433,-4.4433,0,-4.4007,-4.4035,-4.4074,-4.4094,-4.4113,-4.4145,-4.4166,-4.4184,-4.4206,-4.4241,-4.426,-4.4294,-4.4321,-4.4373,-4.4393,-4.4423,-4.4424,-4.4445,-4.4428,-4.4423,-4.4421,-4.4418,-4.4419,-4.4447,-4.4447,-4.4448,-4.4448,0,-4.4053,-4.4063,-4.4094,-4.4129,-4.4155,-4.4183,-4.4211,-4.4226,-4.4248,-4.4271,-4.4306,-4.4328,-4.4369,-4.4402,-4.4434,-4.445,-4.4451,-4.4454,-4.446,-4.4454,-4.4446,-4.4448,-4.4391,-4.4451,-4.4451,-4.4451,-4.4451,-4.4451,-4.4083,-4.4107,-4.4139,-4.4173,-4.4196,-4.4222,-4.4246,-4.4265,-4.4295,-4.4331,-4.434,-4.4376,-4.4403,-4.4447,-4.4464,-4.449,-4.4485,-4.4495,-4.4496,-4.4498,-4.4497,-4.4444,-4.4497,-4.4496,-4.4496,-4.4496,-4.4496,0,-4.4127,-4.4148,-4.418,-4.4219,-4.4245,-4.4248,-4.4279,-4.43,-4.4332,-4.4358,-4.4385,-4.4424,-4.4455,-4.4478,-4.451,-4.4526,-4.4528,-4.4534,-4.4531,-4.4534,-4.4501,-4.4492,-4.4532,-4.4532,-4.4532,-4.4532,-4.4532,-4.4532,-4.4153,-4.4194,-4.4207,-4.4259,-4.4279,-4.4315,-4.4332,-4.4355,-4.4376,-4.4419,-4.4446,-4.4461,-4.4485,-4.4519,-4.4547,-4.4552,-4.4562,-4.4568,-4.4573,-4.4541,-4.4537,-4.4533,-4.4524,-4.4571,-4.4571,-4.4604,-4.4604,-4.4604]},{"header":{"parameterUnit":"m.s-1","parameterCategory":1,"la1":30.2991,"la2":30.254,"lo1":-89.0895,"lo2":-89.0444,"dy":0.0017,"dx":0.0017,"nx":28,"ny":28,"refTime":"2023-09-25T09:00:00:Z","depth":0,"parameterNumber":3,"parameterNumberName":"V-component_of_WINDS"},"data":[0,0,0,0,0,0,0,0,0,0,0,0,0,0,0,0,0,0,0,0,0,0,0,0,0,0,0,0,0,0,0,0,0,0,0,0,0,0,0,0,0,0,0,0,0,0,0,0,0,0,0,0,0,0,0,0,0,0,2.2394,2.2395,0,2.2454,2.2454,2.2455,2.2391,2.2388,2.2386,2.2383,2.2441,2.2444,2.2448,0,0,0,0,0,0,0,0,0,0,0,0,0,2.2223,2.2227,2.2394,2.2395,2.2396,2.2453,2.2454,2.2455,2.2391,2.2388,2.2385,2.2382,2.244,2.2444,2.2449,0,0,0,0,0,0,0,0,0,0,0,0,0,2.2292,2.2228,2.2394,2.2371,2.2369,2.2453,2.2454,2.2455,2.2392,2.2388,2.2384,2.2381,2.2438,2.2444,2.2449,2.2558,0,0,2.2467,2.2469,0,0,0,0,0,0,0,0,2.2288,2.2298,2.2373,2.2373,2.2371,2.2411,2.2415,2.249,2.2393,2.2383,2.2383,2.2379,2.2434,2.2439,2.2458,2.2561,2.2563,2.2467,2.2471,2.2473,2.2475,0,0,0,0,0,0,0,2.2283,2.2295,2.2417,2.2375,2.2373,2.2357,2.2362,2.2429,2.2428,2.2384,2.2379,2.2387,2.2432,2.2453,2.2459,2.2564,2.2467,2.2472,2.2476,2.2478,2.276,2.2764,0,0,0,0,0,0,2.2281,2.2291,2.2416,2.2419,2.232,2.2363,2.2369,2.2402,2.2427,2.2428,2.239,2.2384,2.2445,2.2453,2.2461,2.2591,2.2473,2.2478,2.2482,2.2756,2.2761,2.2765,0,0,0,0,0,0,2.2278,2.2293,2.2413,2.2354,2.2368,2.237,2.2407,2.2405,2.2426,2.2432,2.2432,2.2412,2.2443,2.2453,2.2535,2.2592,2.2481,2.2486,2.2751,2.2757,2.2763,2.2851,0,0,0,0,0,0,2.2273,2.2292,2.2334,2.2356,2.2372,2.2487,2.241,2.2409,2.2436,2.2429,2.2452,2.2453,2.2441,2.2527,2.2541,2.2598,2.2491,2.2746,2.2754,2.2761,2.2843,2.286,2.2874,0,0,0,0,0,2.2268,2.2355,2.2336,2.2352,2.2424,2.249,2.2499,2.2484,2.2441,2.2483,2.2487,2.2452,2.2584,2.2536,2.2551,2.2611,2.2742,2.2752,2.2761,2.2836,2.2856,2.2873,0,0,0,0,0,0,2.2338,2.2357,2.2337,2.2434,2.2461,2.2479,2.2531,2.2506,2.2544,2.2535,2.2514,2.252,2.2608,2.2617,2.2563,2.2718,2.2656,2.2669,2.2708,2.2728,2.2742,2.2738,2.2495,0,0,0,0,0,2.2365,2.2418,2.2432,2.2516,2.2531,2.253,2.2558,2.2544,2.2571,2.2581,2.2592,2.2618,2.2666,2.2697,2.2741,2.2845,2.2849,2.2894,2.2909,2.2921,2.2932,2.2989,2.3009,2.2795,2.2795,2.2795,0,0,2.2421,2.2438,2.2472,2.2531,2.255,2.2606,2.2539,2.26,2.264,2.259,2.2669,2.2678,2.2706,2.28,2.2841,2.281,2.2993,2.2933,2.2943,2.2947,2.3001,2.3021,2.3039,2.2802,2.28,2.2799,0,0,2.2551,2.2569,2.2642,2.2664,2.2695,2.2694,2.2712,2.2735,2.2739,2.2818,2.2782,2.283,2.2912,2.2934,2.2956,2.3098,2.3067,2.3113,2.3192,2.3248,2.3264,2.3279,2.3331,2.3349,2.3124,2.3124,2.3124,0,2.2616,2.2698,2.2683,2.2747,2.2774,2.2734,2.2808,2.2829,2.2873,2.2892,2.2857,2.2961,2.2977,2.3076,2.3111,2.313,2.315,2.3109,2.3264,2.3278,2.3292,2.334,2.336,2.3129,2.3129,2.3128,2.3128,0,2.2777,2.2835,2.289,2.2936,2.2969,2.3038,2.3033,2.3069,2.3053,2.3056,2.3137,2.3156,2.3203,2.3226,2.321,2.3324,2.3304,2.3267,2.3204,2.3318,2.3363,2.3382,2.3137,2.3135,2.3134,2.3132,0,0,2.295,2.2989,2.3009,2.303,2.3063,2.3107,2.3175,2.3223,2.3255,2.3287,2.3343,2.3415,2.3382,2.3407,2.3394,2.3443,2.3555,2.34,2.34,2.3428,2.3682,2.371,2.3732,2.3536,2.3539,2.3542,2.368,0,2.3081,2.32,2.3189,2.3301,2.3355,2.3319,2.3378,2.3404,2.3409,2.3455,2.3459,2.3511,2.3463,2.3478,2.3526,2.3532,2.3606,2.3522,2.3587,2.359,2.3581,2.3755,2.3784,2.3913,2.3698,2.3701,2.3703,0,2.3249,2.329,2.3408,2.3435,2.3457,2.351,2.3555,2.36,2.3629,2.3629,2.3659,2.3639,2.3707,2.3644,2.3737,2.368,2.3707,2.3714,2.3719,2.3724,2.3653,2.3765,2.3954,2.3973,2.373,2.3728,2.3726,0,2.3365,2.3449,2.3531,2.3549,2.3583,2.3621,2.3637,2.3663,2.3694,2.3733,2.3752,2.3798,2.3823,2.3859,2.3852,2.3807,2.3948,2.3884,2.395,2.395,2.398,2.3978,2.4176,2.3998,2.3998,2.3998,2.3997,0,2.3512,2.3586,2.3583,2.3633,2.3715,2.3703,2.3784,2.3795,2.3819,2.3871,2.3842,2.3891,2.3878,2.3927,2.3921,2.4,2.4012,2.4014,2.4011,2.4016,2.4016,2.4032,2.4023,2.4003,2.4002,2.4001,2.4,0,2.3654,2.3655,2.3742,2.3768,2.3776,2.3835,2.3857,2.3904,2.3908,2.3974,2.3988,2.3993,2.4049,2.4046,2.4108,2.4105,2.4203,2.419,2.4193,2.419,2.4257,2.4251,2.4472,2.45,2.4304,2.4306,2.4308,0,2.3748,2.3804,2.3836,2.387,2.3889,2.3942,2.3974,2.3965,2.3999,2.4039,2.4082,2.4136,2.4178,2.4269,2.4278,2.4326,2.4314,2.4389,2.4321,2.4325,2.4316,2.4313,2.4318,2.4401,2.4404,2.4405,2.4407,0,2.3914,2.3913,2.396,2.4009,2.4049,2.4086,2.4121,2.4149,2.4144,2.4184,2.4242,2.4275,2.4341,2.4394,2.4441,2.4456,2.4431,2.4429,2.4446,2.4452,2.4452,2.4453,2.4229,2.4423,2.4421,2.442,2.4419,2.4419,2.4035,2.4084,2.4115,2.417,2.4195,2.4229,2.4275,2.4286,2.4334,2.4388,2.438,2.4445,2.4475,2.4535,2.4555,2.4606,2.4579,2.4605,2.4611,2.4618,2.4626,2.4444,2.4614,2.4614,2.4613,2.4613,2.4613,0,2.42,2.4219,2.427,2.432,2.4363,2.4338,2.4375,2.4413,2.4471,2.4502,2.4545,2.4613,2.4666,2.468,2.4731,2.4769,2.4759,2.4783,2.478,2.4784,2.4646,2.4626,2.479,2.479,2.479,2.479,2.479,2.479,2.4291,2.4373,2.4376,2.4471,2.4489,2.4554,2.4578,2.4609,2.4633,2.4711,2.4755,2.4765,2.4789,2.4842,2.489,2.4893,2.4913,2.4942,2.494,2.4811,2.4793,2.4776,2.4757,2.4946,2.4946,2.5073,2.5074,2.5075]}]]